Regional Weather Roundup
Issued by NWS

Home | Current Version | Previous Version | Text Only | Print | Product List | Glossary On
Versions: 1 2 3 4 5 6 7 8 9 10 11 12 13 14 15 16 17 18 19 20 21 22 23 24 25 26 27 28 29 30 31 32 33 34 35 36 37 38 39 40 41 42 43 44 45 46 47 48 49 50
000
ASUS44 KFWD 250115
RWRTX
NORTH TEXAS HOURLY WEATHER ROUNDUP
NATIONAL WEATHER SERVICE FORT WORTH TX
800 PM CDT TUE MAY 24 2016

NOTE: "FAIR" INDICATES FEW OR NO CLOUDS BELOW 12,000 FEET WITH NO
SIGNIFICANT WEATHER AND/OR OBSTRUCTIONS TO VISIBILITY.

TXZ118-119-250200-
DALLAS/FORT WORTH METROPLEX

CITY           SKY/WX    TMP DP  RH WIND       PRES   REMARKS
DFW AIRPORT    CLOUDY    84  71  65 S17G23    29.87F
DALLAS LOVE    MOCLDY    85  72  65 S14       29.88F HX  91
FTW MEACHAM    CLOUDY    85  72  65 S16       29.86F HX  91
DAL-EXECUTIVE  PTCLDY    83  71  67 SE9       29.89S
FTW-ALLIANCE   MOCLDY    82  72  71 S12G22    29.86F
FTW-NAS-JRB    MOCLDY    84  72  67 S16       29.87F
FTW-SPINKS     MOCLDY    83  72  70 S12       29.89F
ARLINGTON      CLOUDY    86  72  62 SE12      29.88F HX  92
GRAND PRAIRIE  MOCLDY    82  72  69 SE9       29.89F
ADDISON        PTCLDY    82  73  74 SE12G18   29.91S
MESQUITE       MOCLDY    82  73  74 SE6       29.91S
LANCASTER      PTCLDY    83  71  66 SE8       29.91S
$$

TXZ091>094-102>105-117-120-121-131>134-250200-
NORTH CENTRAL TEXAS

CITY           SKY/WX    TMP DP  RH WIND       PRES   REMARKS
SHRMAN/DENISON PTCLDY    77  67  70 SE15      29.90F
GAINESVILLE    MOCLDY    78  72  80 SE8       29.90F
BOWIE          CLOUDY    79  71  75 SE7G16    29.87S
DECATUR        MOCLDY    81  70  70 S15G21    29.89R
DENTON         MOCLDY    81  72  74 S9        29.87R
MCKINNEY       MOCLDY    81  73  76 SE10      29.90S
GREENVILLE     CLOUDY    81  72  74 SE3       29.94R
ROCKWALL       PTCLDY    82  74  78 S8        29.90S
TERRELL        CLOUDY    83  73  72 SE8       29.92R
WAXAHACHIE     MOCLDY    81  74  79 SE6       29.92R
CLEBURNE       PTCLDY    82  77  83 S8        29.91F HX  91
GRANBURY       PTCLDY    84  72  67 SE10      29.89S HX  90
$$

TXZ083>090-098>101-113>116-127>130-139>142-154-155-250200-
WESTERN NORTH TEXAS

CITY           SKY/WX    TMP DP  RH WIND       PRES   REMARKS
WICHITA FALLS  MOCLDY    81  72  74 S13       29.82S
WF-KICKAPOO    PTCLDY    83  73  72 S8        29.84R
VERNON         CLOUDY    84  66  53 S16       29.83R
ABILENE        CLOUDY    79  72  79 S20G28    29.87F
ABILENE-DYESS  PTCLDY    80  67  64 SE17      29.85F
BRECKENRIDGE   CLOUDY    82  70  67 S13G22    29.86F
GRAHAM         CLEAR     82  72  73 SE9G20    29.84S
MINERAL WELLS  CLOUDY    81  72  74 S9        29.87R
STEPHENVILLE   MOCLDY    81  71  72 S7        29.93S
COMANCHE       CLOUDY    79  73  83 S9        29.92S
BROWNWOOD      CLOUDY    77  72  83 SE10      29.91F
COLEMAN        CLOUDY    78  71  77 SE9       29.91S
$$

TXZ143>147-156>162-174-175-250200-
CENTRAL TEXAS

CITY           SKY/WX    TMP DP  RH WIND       PRES   REMARKS
WACO           MOCLDY    83  72  69 S13       29.90S
WACO-MCGREGOR  PTCLDY    83  75  77 S13       29.91R HX  90
HILLSBORO      PTCLDY    82  73  75 SE8       29.91S
CORSICANA      MOCLDY    84  74  71 S9        29.93R HX  91
MEXIA          MOCLDY    82  73  75 S10       29.92R
HEARNE         CLOUDY    83  75  75 SE10      29.94R HX  90
CAMERON        CLOUDY    84  75  74 S9        29.91F HX  91
TEMPLE         MOCLDY    82  74  76 S15       29.92R
KILLEEN        PTCLDY    81  73  78 SE14      29.91S HAZE
KILLEEN-SKYLRK CLOUDY    82  73  74 S14       29.92S
FORT HOOD      PTCLDY    81  72  74 S13       29.90S
GATESVILLE     PTCLDY    82  73  74 S8        29.93S
HAMILTON       CLOUDY    81  72  75 S9        29.93S
LAMPASAS       MOCLDY    81  75  82 SE10      29.92S
$$

TXZ095>097-106>112-122>126-135>138-148>153-164>167-250200-
EAST TEXAS

CITY           SKY/WX    TMP DP  RH WIND       PRES   REMARKS
PARIS          PTCLDY    81  66  61 SE8       29.96R
SULPHUR SPRNGS CLOUDY    83  72  69 SE6       29.96R
MOUNT PLEASANT PTCLDY    81  72  73 E7        29.97R
GILMER         CLOUDY    82  73  72 SE7       29.96R
MINEOLA        PTCLDY    82  75  78 CALM      29.95R
TYLER          CLEAR     84  72  67 SE8       29.94R
LONGVIEW       MOCLDY    81  73  76 SE7       29.95R
MARSHALL       MOCLDY    79  70  75 CALM      30.00R
ATHENS         PTCLDY    82  72  69 S5        29.93R
PALESTINE      MOCLDY    83  74  73 SE6       29.95R HX  90
JACKSONVILLE   CLOUDY    82  73  75 SE5       29.97R
HENDERSON      MOCLDY    82  72  70 SE8       29.97R
CENTER         MOCLDY    83  75  78 SE3       29.97S HX  90
NACOGDOCHES    CLOUDY    81  73  78 S8        29.96R
LUFKIN         PTCLDY    80  73  79 SE9       29.96R
$$

SUPPLEMENTAL OBSERVATIONS (CENTRAL)

CITY           SKY/WX    TMP DP  RH WIND       PRES   REMARKS
LAKE TEXOMA      N/A     81  73  78 SE8         N/A
CADDO GRASSLND   N/A     81  73  78 SE3         N/A
PAT MAYSE LAKE   N/A     79  75  89 E5          N/A
LAKE LIMESTONE   N/A     82  75  78 SE3         N/A
MCGREGOR         N/A     82  73  74 S10G21      N/A
TEMPLE           N/A     82  73  74 S9G17       N/A
$$

SUPPLEMENTAL OBSERVATIONS (WEST)

CITY           SKY/WX    TMP DP  RH WIND       PRES   REMARKS
MILLERS CREEK    N/A     81  72  74 S15G24      N/A
POSSUM KINGDOM   N/A     81  72  74 S12G22      N/A
LBJ GRASSLAND    N/A     81  72  74 S9G17       N/A
GRANBURY         N/A     82  72  69 S13         N/A
COMANCHE         N/A     79  72  78 S9          N/A
HAMBY            N/A     81  72  74 S14G23      N/A
IVIE RESERVOIR   N/A     81  72  74 SE10G20     N/A
COLORADO BEND    N/A     81  73  78 S8          N/A
$$

SUPPLEMENTAL OBSERVATIONS (EAST)

CITY           SKY/WX    TMP DP  RH WIND       PRES   REMARKS
TEXARKANA        N/A     79  72  78 SE1         N/A
CADDO LAKE       N/A     79  73  83 CALM        N/A
LUFKIN           N/A     81  72  74 MISG        N/A
$$

SUPPLEMENTAL OBSERVATIONS ARE A COLLECTION OF AUTOMATED INSTRUMENTS
THAT ARE MAINTAINED BY A VARIETY OF FEDERAL AND STATE AGENCIES.
CERTAIN ELEMENTS...SUCH AS HUMIDITY VALUES AND SUSTAINED WIND
SPEEDS...MAY BE APPROXIMATED.





USA.gov is the U.S. government's official web portal to all federal, state and local government web resources and services.